Location: Zagreb
(45.8000°N, 16.0000°E)
Time: 22:26:08
(UTC+01:00)

Tiros 1 despin weight - Pass Details

Date: 03 February 2020
Orbit: 594 x 642 km, 48.2° (Epoch: 24 February)

Event Time Altitude Azimuth Distance (km) Brightness Sun altitude
Rises 13:08:09 0° 289° (WNW) 2,876 ? 26.2°
Reaches altitude 10° 13:10:30 10° 284° (WNW) 1,977 ? 26.1°
Maximum altitude 13:14:52 49° 210° (SSW) 807 ? 25.9°
Drops below altitude 10° 13:19:18 10° 136° (SE) 1,998 ? 25.7°
Sets 13:21:41 0° 131° (SE) 2,910 ? 25.5°
